Regional Weather Roundup
Issued by NWS

Home | Current Version | Previous Version | Text Only | Print | Product List | Glossary On
Versions: 1 2 3 4 5 6 7 8 9 10 11 12 13 14 15 16 17 18 19 20 21 22 23 24 25 26 27 28 29 30 31 32 33 34 35 36 37 38 39 40 41 42 43 44 45 46 47 48 49 50
000
ASUS45 KBOI 110110
RWRID

IDAHO REGIONAL WEATHER ROUNDUP
NATIONAL WEATHER SERVICE BOISE ID
600 PM MST WED FEB 10 2016

NOTE: "FAIR" INDICATES FEW OR NO CLOUDS BELOW 12000 FEET
WITH NO SIGNIFICANT WEATHER AND/OR OBSTRUCTIONS TO VISIBILITY

IDZ012-014-110200-
SOUTHWEST IDAHO


CITY           SKY/WX    TMP DP  RH WIND       PRES   REMARKS
BOISE          PTCLDY    37  32  82 NW6       30.42R WCI  32
CALDWELL       PTCLDY    40  32  73 NE5       30.44S
MOUNTAIN HOME  PTCLDY    34  31  86 NW5       30.41R WCI  30
$$

IDZ016-017-110200-
SOUTHCENTRAL IDAHO


CITY           SKY/WX    TMP DP  RH WIND       PRES   REMARKS
BURLEY         MOCLDY    35  29  78 N6        30.35F WCI  30
JEROME         PTCLDY    31  25  78 NE12      30.38R WCI  22
TWIN FALLS     PTCLDY    35  31  85 NE3       30.37R
$$

IDZ019>023-110200-
SOUTHEAST IDAHO


CITY           SKY/WX    TMP DP  RH WIND       PRES   REMARKS
IDAHO FALLS    CLOUDY    22  17  81 CALM      30.41S
POCATELLO      CLOUDY    29  23  78 E6        30.41S WCI  23
REXBURG        CLOUDY    29  22  75 E3        30.39F
$$

IDZ006-010-011-018-031-032-110200-
CENTRAL IDAHO MOUNTAINS


CITY           SKY/WX    TMP DP  RH WIND       PRES   REMARKS
MCCALL         CLOUDY    36  29  75 CALM      30.34R
HAILEY         PTCLDY    30  25  80 CALM      30.38R
STANLEY          N/A     27  19  72 S3        30.35R
SALMON         CLOUDY    21  18  86 NE3       30.37R
CHALLIS        PTCLDY    20  15  81 NW3       30.34S
$$

IDZ002-004-006-007-026-110200-
NORTHERN IDAHO


CITY           SKY/WX    TMP DP  RH WIND       PRES   REMARKS
LEWISTON       MOCLDY    52  35  52 NW3       30.28R
LOWELL           N/A     44  39  82 N3        30.32R
COEUR D`ALENE  CLOUDY    39  36  87 N6        30.22S WCI  35
MULLAN PASS    CLOUDY    39  24  55 W8        30.23F WCI  33
$$



USA.gov is the U.S. government's official web portal to all federal, state and local government web resources and services.